| time (UTC) | temp C | wind direction | speed KPH | gust KPH | rain 1hr cm | rain 24hr cm | rain mn cm | humidity % | barometer mb |
| 20260904122135 | 19 | 13 | 0.0 | 3.2 | 0.00 | 0.43 | 0.43 | 99 | 1013.4 |
| 20260904121630 | 18 | 35 | 3.2 | 3.2 | 0.00 | 0.43 | 0.43 | 99 | 1013.4 |
| 20260904121126 | 18 | 66 | 3.2 | 3.2 | 0.00 | 0.43 | 0.43 | 99 | 1013.5 |
| 20260904120623 | 19 | 124 | 0.0 | 1.6 | 0.00 | 0.43 | 0.43 | 99 | 1013.6 |
| 20260904120119 | 18 | 31 | 3.2 | 3.2 | 0.00 | 0.43 | 0.43 | 99 | 1013.4 |
| 20260904115618 | 18 | 351 | 1.6 | 3.2 | 0.00 | 0.43 | 0.43 | 99 | 1013.6 |
| 20260904115113 | 18 | 50 | 0.0 | 3.2 | 0.00 | 0.43 | 0.43 | 99 | 1013.4 |
| 20260904114608 | 18 | 22 | 0.0 | 1.6 | 0.00 | 0.43 | 0.43 | 99 | 1013.2 |
| 20260904114103 | 18 | 89 | 0.0 | 0.0 | 0.00 | 0.43 | 0.43 | 99 | 1013.6 |
| 20260904113603 | 18 | 39 | 1.6 | 3.2 | 0.00 | 0.43 | 0.43 | 99 | 1013.2 |
| 20260904113102 | 18 | 80 | 3.2 | 3.2 | 0.00 | 0.43 | 0.43 | 99 | 1013.4 |
| 20260904112557 | 18 | 39 | 1.6 | 3.2 | 0.00 | 0.43 | 0.43 | 99 | 1013.4 |
| 20260904112053 | 18 | 48 | 3.2 | 4.8 | 0.00 | 0.43 | 0.43 | 99 | 1013.3 |
| 20260904111549 | 18 | 43 | 0.0 | 3.2 | 0.00 | 0.43 | 0.43 | 99 | 1013.3 |
| 20260904111044 | 18 | 358 | 1.6 | 3.2 | 0.00 | 0.43 | 0.43 | 99 | 1013.3 |
| 20260904110543 | 18 | 20 | 3.2 | 3.2 | 0.00 | 0.43 | 0.43 | 99 | 1013.2 |
| 20260904110034 | 18 | 14 | 1.6 | 3.2 | 0.00 | 0.43 | 0.43 | 99 | 1013.1 |
| 20260904105527 | 18 | 28 | 3.2 | 3.2 | 0.00 | 0.43 | 0.43 | 99 | 1012.9 |
| 20260904105023 | 18 | 11 | 3.2 | 3.2 | 0.00 | 0.43 | 0.43 | 99 | 1013.0 |
| 20260904104518 | 18 | 15 | 3.2 | 4.8 | 0.00 | 0.43 | 0.43 | 99 | 1013.2 |
| 20260904104014 | 18 | 45 | 3.2 | 3.2 | 0.00 | 0.43 | 0.43 | 99 | 1013.2 |
| 20260904103509 | 18 | 11 | 3.2 | 3.2 | 0.00 | 0.43 | 0.43 | 99 | 1013.2 |
| 20260904103005 | 18 | 214 | 0.0 | 1.6 | 0.00 | 0.43 | 0.43 | 99 | 1012.9 |
| 20260904102501 | 18 | 33 | 0.0 | 3.2 | 0.00 | 0.43 | 0.43 | 99 | 1012.8 |
| 20260904101955 | 18 | 48 | 1.6 | 3.2 | 0.00 | 0.43 | 0.43 | 99 | 1012.8 |
| 20260904101453 | 18 | 322 | 0.0 | 0.0 | 0.00 | 0.43 | 0.43 | 99 | 1012.9 |
| 20260904100948 | 18 | 50 | 0.0 | 1.6 | 0.00 | 0.43 | 0.43 | 99 | 1012.7 |
| 20260904100444 | 18 | 11 | 1.6 | 3.2 | 0.00 | 0.43 | 0.43 | 99 | 1012.9 |
| 20260904095943 | 18 | 43 | 3.2 | 3.2 | 0.00 | 0.43 | 0.43 | 99 | 1012.8 |
| 20260904095439 | 18 | 55 | 0.0 | 1.6 | 0.00 | 0.43 | 0.43 | 99 | 1012.7 |
| 20260904094938 | 18 | 66 | 1.6 | 3.2 | 0.00 | 0.43 | 0.43 | 99 | 1012.8 |
| 20260904094434 | 18 | 19 | 1.6 | 1.6 | 0.00 | 0.43 | 0.43 | 99 | 1012.7 |
| 20260904093924 | 18 | 23 | 1.6 | 3.2 | 0.00 | 0.43 | 0.43 | 99 | 1012.8 |
| 20260904093419 | 18 | 55 | 1.6 | 3.2 | 0.00 | 0.43 | 0.43 | 99 | 1012.7 |
| 20260904092909 | 18 | 48 | 0.0 | 1.6 | 0.00 | 0.43 | 0.43 | 99 | 1012.6 |
| 20260904092406 | 18 | 54 | 0.0 | 1.6 | 0.00 | 0.43 | 0.43 | 99 | 1012.5 |
| 20260904091902 | 18 | 126 | 0.0 | 3.2 | 0.00 | 0.43 | 0.43 | 99 | 1012.6 |
| 20260904091357 | 18 | 106 | 0.0 | 1.6 | 0.00 | 0.43 | 0.43 | 99 | 1012.8 |
| 20260904090852 | 18 | 133 | 3.2 | 3.2 | 0.00 | 0.43 | 0.43 | 99 | 1012.6 |
| 20260904090347 | 18 | 49 | 0.0 | 1.6 | 0.00 | 0.43 | 0.43 | 99 | 1012.6 |
| 20260904085843 | 18 | 12 | 0.0 | 1.6 | 0.00 | 0.43 | 0.43 | 99 | 1012.6 |
| 20260904085337 | 18 | 57 | 1.6 | 3.2 | 0.00 | 0.43 | 0.43 | 99 | 1012.6 |
| 20260904084832 | 18 | 16 | 1.6 | 3.2 | 0.00 | 0.43 | 0.43 | 99 | 1012.5 |
| 20260904084328 | 18 | 85 | 3.2 | 3.2 | 0.00 | 0.43 | 0.43 | 99 | 1012.5 |
| 20260904083824 | 18 | 114 | 3.2 | 3.2 | 0.00 | 0.43 | 0.43 | 99 | 1012.3 |
| 20260904083320 | 19 | 214 | 0.0 | 3.2 | 0.00 | 0.43 | 0.43 | 99 | 1012.4 |
| 20260904082815 | 19 | 239 | 1.6 | 1.6 | 0.00 | 0.43 | 0.43 | 99 | 1012.3 |
| 20260904082310 | 19 | 142 | 0.0 | 0.0 | 0.00 | 0.43 | 0.43 | 99 | 1012.2 |
| 20260904081805 | 19 | 89 | 0.0 | 1.6 | 0.00 | 0.43 | 0.43 | 99 | 1012.2 |
| 20260904081301 | 19 | 11 | 1.6 | 1.6 | 0.00 | 0.43 | 0.43 | 99 | 1012.0 |
| 20260904080756 | 19 | 336 | 0.0 | 1.6 | 0.00 | 0.43 | 0.43 | 99 | 1011.7 |
| 20260904080251 | 19 | 29 | 0.0 | 0.0 | 0.00 | 0.43 | 0.43 | 99 | 1011.8 |
| 20260904075748 | 19 | 19 | 0.0 | 1.6 | 0.00 | 0.43 | 0.43 | 99 | 1011.9 |
| 20260904075242 | 19 | 135 | 0.0 | 0.0 | 0.00 | 0.43 | 0.43 | 99 | 1011.8 |
| 20260904074742 | 19 | 50 | 0.0 | 0.0 | 0.00 | 0.43 | 0.43 | 99 | 1011.7 |
| 20260904074236 | 19 | 45 | 0.0 | 0.0 | 0.00 | 0.43 | 0.43 | 99 | 1011.7 |
| 20260904073731 | 19 | 37 | 0.0 | 0.0 | 0.00 | 0.43 | 0.43 | 99 | 1011.6 |
| 20260904073222 | 19 | 10 | 1.6 | 3.2 | 0.00 | 0.43 | 0.43 | 99 | 1011.6 |
| 20260904072718 | 19 | 78 | 3.2 | 3.2 | 0.00 | 0.43 | 0.43 | 99 | 1011.4 |
| 20260904072212 | 19 | 64 | 0.0 | 1.6 | 0.00 | 0.43 | 0.43 | 99 | 1011.5 |
| 20260904071708 | 19 | 129 | 0.0 | 0.0 | 0.00 | 0.43 | 0.43 | 99 | 1011.7 |
| 20260904071203 | 19 | 22 | 0.0 | 0.0 | 0.00 | 0.43 | 0.43 | 99 | 1011.6 |
| 20260904070702 | 19 | 37 | 0.0 | 1.6 | 0.00 | 0.43 | 0.43 | 99 | 1011.5 |
| 20260904070201 | 20 | 72 | 1.6 | 1.6 | 0.00 | 0.43 | 0.43 | 99 | 1011.3 |
| 20260904065656 | 20 | 309 | 0.0 | 0.0 | 0.00 | 0.43 | 0.43 | 99 | 1011.5 |
| 20260904065154 | 20 | 304 | 0.0 | 0.0 | 0.00 | 0.43 | 0.43 | 99 | 1011.7 |
| 20260904064653 | 20 | 296 | 0.0 | 1.6 | 0.00 | 0.43 | 0.43 | 99 | 1011.6 |
| 20260904064149 | 20 | 309 | 0.0 | 0.0 | 0.00 | 0.43 | 0.43 | 99 | 1011.5 |
| 20260904063644 | 19 | 50 | 0.0 | 0.0 | 0.00 | 0.43 | 0.43 | 99 | 1011.4 |
| 20260904063140 | 20 | 37 | 0.0 | 0.0 | 0.00 | 0.43 | 0.43 | 99 | 1011.7 |
| 20260904062636 | 20 | 35 | 0.0 | 3.2 | 0.00 | 0.43 | 0.43 | 99 | 1011.6 |
| 20260904062132 | 20 | 15 | 1.6 | 1.6 | 0.00 | 0.43 | 0.43 | 99 | 1011.7 |
| 20260904061627 | 20 | 321 | 0.0 | 1.6 | 0.00 | 0.43 | 0.43 | 99 | 1011.6 |
| 20260904061123 | 20 | 50 | 0.0 | 0.0 | 0.00 | 0.43 | 0.43 | 99 | 1011.5 |
| 20260904060620 | 20 | 89 | 0.0 | 1.6 | 0.00 | 0.43 | 0.43 | 99 | 1011.6 |
| 20260904060115 | 20 | 66 | 0.0 | 1.6 | 0.00 | 0.43 | 0.43 | 99 | 1011.9 |
| 20260904055610 | 20 | 62 | 1.6 | 1.6 | 0.00 | 0.43 | 0.43 | 99 | 1011.7 |
| 20260904055105 | 20 | 41 | 1.6 | 3.2 | 0.00 | 0.43 | 0.43 | 99 | 1011.9 |
| 20260904054601 | 20 | 16 | 1.6 | 3.2 | 0.00 | 0.43 | 0.43 | 99 | 1011.9 |
| 20260904054056 | 20 | 0 | 0.0 | 1.6 | 0.00 | 0.43 | 0.43 | 99 | 1011.7 |
| 20260904053556 | 20 | 76 | 0.0 | 1.6 | 0.00 | 0.43 | 0.43 | 99 | 1012.0 |
| 20260904053051 | 20 | 52 | 0.0 | 3.2 | 0.00 | 0.43 | 0.43 | 99 | 1011.8 |
| 20260904052548 | 20 | 32 | 0.0 | 1.6 | 0.00 | 0.43 | 0.43 | 99 | 1011.8 |
| 20260904052044 | 20 | 304 | 0.0 | 3.2 | 0.00 | 0.43 | 0.43 | 99 | 1011.9 |
| 20260904051540 | 21 | 37 | 0.0 | 1.6 | 0.00 | 0.43 | 0.43 | 99 | 1011.8 |
| 20260904051039 | 21 | 50 | 0.0 | 3.2 | 0.00 | 0.43 | 0.43 | 99 | 1012.2 |
| 20260904050535 | 21 | 21 | 1.6 | 3.2 | 0.00 | 0.43 | 0.43 | 99 | 1012.2 |
| 20260904050031 | 21 | 322 | 0.0 | 0.0 | 0.05 | 0.43 | 0.43 | 99 | 1012.1 |
| 20260904045526 | 21 | 358 | 1.6 | 3.2 | 0.00 | 0.41 | 0.41 | 99 | 1012.2 |
| 20260904045021 | 21 | 126 | 1.6 | 4.8 | 0.00 | 0.41 | 0.41 | 99 | 1012.2 |
| 20260904044517 | 21 | 343 | 0.0 | 0.0 | 0.00 | 0.41 | 0.41 | 99 | 1012.4 |
| 20260904044013 | 21 | 29 | 0.0 | 3.2 | 0.00 | 0.41 | 0.41 | 99 | 1012.4 |
| 20260904043509 | 21 | 33 | 1.6 | 3.2 | 0.05 | 0.41 | 0.41 | 99 | 1012.3 |
| 20260904043004 | 21 | 18 | 3.2 | 3.2 | 0.43 | 0.41 | 0.41 | 99 | 1012.4 |
| 20260904042500 | 21 | 249 | 0.0 | 3.2 | 1.19 | 0.41 | 0.41 | 99 | 1012.2 |
| 20260904041949 | 21 | 76 | 3.2 | 3.2 | 1.14 | 0.30 | 0.30 | 99 | 1012.4 |
| 20260904041446 | 21 | 75 | 3.2 | 3.2 | 0.53 | 0.18 | 0.18 | 99 | 1012.3 |
| 20260904040941 | 21 | 29 | 1.6 | 3.2 | 0.71 | 0.13 | 0.13 | 99 | 1012.6 |
| 20260904040441 | 21 | 135 | 0.0 | 3.2 | 1.68 | 0.08 | 0.08 | 99 | 1012.5 |
| 20260904035937 | 21 | 87 | 1.6 | 6.4 | 1.45 | 1.04 | 1.04 | 99 | 1012.1 |
| 20260904035433 | 21 | 15 | 0.0 | 1.6 | 0.53 | 0.84 | 0.84 | 99 | 1012.7 |
| 20260904034932 | 21 | 118 | 3.2 | 3.2 | 0.66 | 0.81 | 0.81 | 99 | 1012.1 |
| 20260904034427 | 21 | 278 | 1.6 | 1.6 | 0.53 | 0.74 | 0.74 | 99 | 1012.4 |
| 20260904033923 | 21 | 336 | 0.0 | 3.2 | 0.48 | 0.69 | 0.69 | 99 | 1012.4 |
| 20260904033419 | 21 | 62 | 0.0 | 3.2 | 0.30 | 0.66 | 0.66 | 99 | 1012.2 |
| 20260904032915 | 21 | 50 | 0.0 | 0.0 | 0.18 | 0.61 | 0.61 | 99 | 1012.4 |
| 20260904032410 | 21 | 66 | 0.0 | 0.0 | 0.18 | 0.61 | 0.61 | 99 | 1012.2 |
| 20260904031904 | 21 | 62 | 0.0 | 1.6 | 0.05 | 0.56 | 0.56 | 99 | 1012.1 |
| 20260904031400 | 21 | 318 | 3.2 | 3.2 | 0.18 | 0.56 | 0.56 | 99 | 1012.1 |
| 20260904030856 | 21 | 352 | 0.0 | 0.0 | 0.30 | 0.56 | 0.56 | 99 | 1012.0 |
| 20260904030351 | 21 | 19 | 0.0 | 0.0 | 0.23 | 0.53 | 0.53 | 99 | 1012.2 |
| 20260904025847 | 21 | 359 | 3.2 | 3.2 | 0.23 | 0.51 | 0.51 | 99 | 1012.2 |
| 20260904025342 | 21 | 62 | 0.0 | 1.6 | 0.13 | 0.48 | 0.48 | 99 | 1012.2 |
| 20260904024842 | 21 | 15 | 1.6 | 3.2 | 0.00 | 0.46 | 0.46 | 99 | 1012.2 |
| 20260904024337 | 21 | 0 | 1.6 | 3.2 | 0.00 | 0.46 | 0.46 | 99 | 1012.0 |
| 20260904023834 | 21 | 30 | 1.6 | 3.2 | 0.00 | 0.46 | 0.46 | 99 | 1011.9 |
| 20260904023330 | 21 | 44 | 1.6 | 3.2 | 0.00 | 0.46 | 0.46 | 99 | 1011.9 |
| 20260904022828 | 21 | 15 | 3.2 | 3.2 | 0.00 | 0.46 | 0.46 | 99 | 1012.0 |
| 20260904022326 | 21 | 89 | 0.0 | 0.0 | 0.00 | 0.46 | 0.46 | 99 | 1012.2 |
| 20260904021822 | 21 | 15 | 0.0 | 0.0 | 0.00 | 0.46 | 0.46 | 99 | 1012.1 |
| 20260904021322 | 21 | 346 | 0.0 | 1.6 | 0.00 | 0.46 | 0.46 | 99 | 1012.3 |
| 20260904020817 | 21 | 309 | 0.0 | 1.6 | 0.00 | 0.46 | 0.46 | 99 | 1012.5 |
| 20260904020312 | 21 | 311 | 3.2 | 3.2 | 0.00 | 0.46 | 0.46 | 99 | 1012.7 |
| 20260904015810 | 21 | 7 | 1.6 | 1.6 | 0.00 | 0.46 | 0.46 | 99 | 1012.6 |
| 20260904015307 | 21 | 89 | 0.0 | 0.0 | 0.00 | 0.46 | 0.46 | 99 | 1012.6 |
| 20260904014805 | 21 | 89 | 0.0 | 0.0 | 0.00 | 0.46 | 0.46 | 99 | 1012.5 |
| 20260904014300 | 21 | 321 | 0.0 | 0.0 | 0.00 | 0.46 | 0.46 | 99 | 1012.7 |
| 20260904013756 | 21 | 282 | 0.0 | 1.6 | 0.00 | 0.46 | 0.46 | 99 | 1012.5 |
| 20260904013252 | 21 | 26 | 1.6 | 3.2 | 0.00 | 0.46 | 0.46 | 99 | 1012.7 |
| 20260904012747 | 21 | 89 | 3.2 | 3.2 | 0.00 | 0.46 | 0.46 | 99 | 1012.6 |
| 20260904012247 | 21 | 43 | 0.0 | 1.6 | 0.00 | 0.46 | 0.46 | 99 | 1012.6 |
| 20260904011746 | 21 | 28 | 1.6 | 1.6 | 0.00 | 0.46 | 0.46 | 99 | 1012.6 |
| 20260904011241 | 21 | 80 | 1.6 | 1.6 | 0.00 | 0.46 | 0.46 | 99 | 1012.7 |
| 20260904010736 | 21 | 49 | 0.0 | 0.0 | 0.00 | 0.46 | 0.46 | 99 | 1012.9 |
| 20260904010233 | 21 | 129 | 0.0 | 0.0 | 0.00 | 0.46 | 0.46 | 99 | 1012.7 |
| 20260904005727 | 21 | 44 | 0.0 | 0.0 | 0.00 | 0.46 | 0.46 | 99 | 1012.8 |
| 20260904005223 | 21 | 44 | 0.0 | 3.2 | 0.00 | 0.46 | 0.46 | 99 | 1012.6 |
| 20260904004718 | 21 | 34 | 1.6 | 3.2 | 0.00 | 0.46 | 0.46 | 99 | 1012.7 |
| 20260904004214 | 21 | 34 | 1.6 | 1.6 | 0.00 | 0.46 | 0.46 | 99 | 1012.5 |
| 20260904003708 | 21 | 72 | 1.6 | 3.2 | 0.00 | 0.46 | 0.46 | 99 | 1012.6 |
| 20260904003205 | 21 | 50 | 0.0 | 0.0 | 0.00 | 0.46 | 0.46 | 99 | 1012.5 |
| 20260904002700 | 22 | 50 | 0.0 | 0.0 | 0.00 | 0.46 | 0.46 | 99 | 1012.5 |
| 20260904002155 | 22 | 297 | 0.0 | 0.0 | 0.00 | 0.46 | 0.46 | 99 | 1012.2 |
| 20260904001645 | 22 | 22 | 0.0 | 1.6 | 0.00 | 0.46 | 0.46 | 99 | 1012.4 |
| 20260904001144 | 22 | 50 | 0.0 | 1.6 | 0.00 | 0.46 | 0.46 | 99 | 1012.3 |
| 20260904000639 | 22 | 59 | 1.6 | 1.6 | 0.00 | 0.46 | 0.46 | 99 | 1012.5 |
| 20260904000135 | 22 | 315 | 0.0 | 0.0 | 0.00 | 0.46 | 0.46 | 99 | 1012.3 |
| 20260903235634 | 22 | 315 | 0.0 | 3.2 | 0.00 | 0.46 | 0.46 | 99 | 1012.4 |
| 20260903235130 | 22 | 322 | 1.6 | 3.2 | 0.00 | 0.46 | 0.46 | 99 | 1012.2 |
| 20260903234625 | 22 | 37 | 0.0 | 0.0 | 0.00 | 0.46 | 0.46 | 99 | 1012.2 |
| 20260903234121 | 22 | 37 | 0.0 | 0.0 | 0.00 | 0.46 | 0.46 | 99 | 1012.3 |
| 20260903233617 | 22 | 6 | 0.0 | 0.0 | 0.00 | 0.46 | 0.46 | 99 | 1012.5 |
| 20260903233113 | 22 | 50 | 0.0 | 0.0 | 0.00 | 0.46 | 0.46 | 98 | 1012.5 |
| 20260903232607 | 23 | 50 | 0.0 | 0.0 | 0.00 | 0.46 | 0.46 | 98 | 1012.6 |
| 20260903232103 | 23 | 309 | 0.0 | 1.6 | 0.00 | 0.46 | 0.46 | 98 | 1012.6 |
| 20260903231556 | 23 | 299 | 0.0 | 1.6 | 0.00 | 0.46 | 0.46 | 98 | 1012.5 |
| 20260903231051 | 23 | 343 | 0.0 | 1.6 | 0.00 | 0.46 | 0.46 | 98 | 1012.6 |
| 20260903230548 | 23 | 321 | 0.0 | 0.0 | 0.00 | 0.46 | 0.46 | 98 | 1012.5 |
| 20260903230045 | 23 | 322 | 0.0 | 3.2 | 0.00 | 0.46 | 0.46 | 98 | 1012.5 |
| 20260903225537 | 23 | 322 | 1.6 | 1.6 | 0.00 | 0.46 | 0.46 | 98 | 1012.3 |
| 20260903225033 | 23 | 315 | 1.6 | 3.2 | 0.00 | 0.46 | 0.46 | 97 | 1012.3 |
| 20260903224530 | 23 | 315 | 0.0 | 0.0 | 0.00 | 0.46 | 0.46 | 97 | 1012.2 |
| 20260903224025 | 23 | 300 | 0.0 | 1.6 | 0.00 | 0.46 | 0.46 | 97 | 1012.1 |
| 20260903223524 | 24 | 309 | 0.0 | 0.0 | 0.00 | 0.46 | 0.46 | 96 | 1012.1 |
| 20260903223024 | 24 | 303 | 1.6 | 3.2 | 0.00 | 0.46 | 0.46 | 95 | 1012.0 |
| 20260903222520 | 24 | 308 | 1.6 | 3.2 | 0.00 | 0.46 | 0.46 | 95 | 1012.0 |
| 20260903222018 | 24 | 295 | 3.2 | 3.2 | 0.00 | 0.46 | 0.46 | 94 | 1012.3 |
| 20260903221514 | 24 | 295 | 1.6 | 3.2 | 0.00 | 0.46 | 0.46 | 94 | 1011.9 |
| 20260903221011 | 25 | 302 | 3.2 | 3.2 | 0.00 | 0.46 | 0.46 | 93 | 1011.8 |
| 20260903220510 | 25 | 287 | 3.2 | 4.8 | 0.00 | 0.46 | 0.46 | 93 | 1011.7 |
| 20260903220010 | 25 | 315 | 1.6 | 3.2 | 0.00 | 0.46 | 0.46 | 93 | 1011.6 |
| 20260903215505 | 25 | 295 | 3.2 | 3.2 | 0.00 | 0.46 | 0.46 | 92 | 1011.7 |
| 20260903215003 | 25 | 304 | 3.2 | 4.8 | 0.00 | 0.46 | 0.46 | 91 | 1011.7 |
| 20260903214459 | 26 | 293 | 1.6 | 1.6 | 0.00 | 0.46 | 0.46 | 86 | 1011.8 |
| 20260903213958 | 27 | 320 | 1.6 | 1.6 | 0.00 | 0.46 | 0.46 | 85 | 1011.8 |
| 20260903213454 | 26 | 25 | 0.0 | 1.6 | 0.00 | 0.46 | 0.46 | 80 | 1011.7 |
| 20260903212950 | 27 | 296 | 0.0 | 1.6 | 0.00 | 0.46 | 0.46 | 80 | 1011.9 |
| 20260903212445 | 27 | 340 | 1.6 | 3.2 | 0.00 | 0.46 | 0.46 | 78 | 1011.9 |
| 20260903211940 | 26 | 343 | 1.6 | 6.4 | 0.00 | 0.46 | 0.46 | 82 | 1012.0 |
| 20260903211435 | 27 | 349 | 1.6 | 4.8 | 0.00 | 0.46 | 0.46 | 78 | 1011.7 |
| 20260903210932 | 28 | 255 | 3.2 | 3.2 | 0.00 | 0.46 | 0.46 | 77 | 1011.9 |
| 20260903210431 | 28 | 314 | 3.2 | 3.2 | 0.00 | 0.46 | 0.46 | 79 | 1012.1 |
| 20260903205927 | 28 | 296 | 1.6 | 3.2 | 0.00 | 0.46 | 0.46 | 79 | 1012.0 |
| 20260903205426 | 28 | 350 | 0.0 | 3.2 | 0.00 | 0.46 | 0.46 | 77 | 1012.2 |
| 20260903204920 | 28 | 170 | 3.2 | 3.2 | 0.00 | 0.46 | 0.46 | 74 | 1012.2 |
| 20260903204417 | 28 | 0 | 1.6 | 4.8 | 0.00 | 0.46 | 0.46 | 74 | 1012.2 |
| 20260903203913 | 28 | 236 | 0.0 | 6.4 | 0.00 | 0.46 | 0.46 | 72 | 1012.2 |
| 20260903203408 | 28 | 330 | 3.2 | 4.8 | 0.00 | 0.46 | 0.46 | 76 | 1012.2 |
| 20260903202907 | 27 | 343 | 0.0 | 3.2 | 0.00 | 0.46 | 0.46 | 77 | 1012.3 |
| 20260903202404 | 27 | 282 | 4.8 | 6.4 | 0.00 | 0.46 | 0.46 | 77 | 1012.4 |
| 20260903201903 | 27 | 313 | 3.2 | 9.7 | 0.00 | 0.46 | 0.46 | 76 | 1012.2 |
| 20260903201359 | 28 | 284 | 14.5 | 17.7 | 0.00 | 0.46 | 0.46 | 75 | 1012.5 |
| 20260903200858 | 28 | 214 | 9.7 | 9.7 | 0.00 | 0.46 | 0.46 | 73 | 1012.5 |
| 20260903200353 | 28 | 224 | 8.0 | 9.7 | 0.00 | 0.46 | 0.46 | 72 | 1012.4 |
| 20260903195848 | 28 | 235 | 3.2 | 6.4 | 0.00 | 0.46 | 0.46 | 74 | 1012.5 |
| 20260903195344 | 28 | 272 | 3.2 | 8.0 | 0.00 | 0.46 | 0.46 | 72 | 1012.5 |
| 20260903194838 | 27 | 325 | 3.2 | 6.4 | 0.00 | 0.46 | 0.46 | 77 | 1012.4 |
| 20260903194334 | 28 | 32 | 0.0 | 3.2 | 0.00 | 0.46 | 0.46 | 75 | 1012.2 |
| 20260903193830 | 27 | 211 | 4.8 | 8.0 | 0.00 | 0.46 | 0.46 | 74 | 1012.5 |
| 20260903193326 | 28 | 336 | 3.2 | 8.0 | 0.00 | 0.46 | 0.46 | 75 | 1012.0 |
| 20260903192821 | 27 | 143 | 3.2 | 3.2 | 0.00 | 0.46 | 0.46 | 76 | 1012.5 |
| 20260903192316 | 27 | 254 | 6.4 | 12.9 | 0.00 | 0.46 | 0.46 | 74 | 1012.5 |
| 20260903191813 | 27 | 56 | 0.0 | 3.2 | 0.00 | 0.46 | 0.46 | 78 | 1012.6 |
| 20260903191308 | 27 | 247 | 6.4 | 11.3 | 0.00 | 0.46 | 0.46 | 78 | 1012.7 |
| 20260903190807 | 27 | 252 | 4.8 | 6.4 | 0.00 | 0.46 | 0.46 | 75 | 1012.6 |
| 20260903190303 | 28 | 248 | 3.2 | 6.4 | 0.00 | 0.46 | 0.46 | 75 | 1012.6 |
| 20260903185757 | 27 | 271 | 4.8 | 12.9 | 0.00 | 0.46 | 0.46 | 77 | 1012.9 |
| 20260903185256 | 26 | 236 | 3.2 | 3.2 | 0.00 | 0.46 | 0.46 | 78 | 1012.8 |
| 20260903184753 | 26 | 333 | 0.0 | 4.8 | 0.00 | 0.46 | 0.46 | 81 | 1013.2 |
| 20260903184249 | 26 | 19 | 1.6 | 1.6 | 0.00 | 0.46 | 0.46 | 82 | 1012.9 |
| 20260903183744 | 26 | 339 | 0.0 | 3.2 | 0.00 | 0.46 | 0.46 | 84 | 1012.9 |
| 20260903183238 | 26 | 323 | 3.2 | 6.4 | 0.00 | 0.46 | 0.46 | 80 | 1012.8 |
| 20260903182737 | 26 | 8 | 3.2 | 3.2 | 0.00 | 0.46 | 0.46 | 81 | 1012.9 |
| 20260903182232 | 26 | 272 | 4.8 | 8.0 | 0.00 | 0.46 | 0.46 | 78 | 1013.3 |
| 20260903181731 | 26 | 257 | 3.2 | 4.8 | 0.00 | 0.46 | 0.46 | 80 | 1013.3 |
| 20260903181226 | 26 | 154 | 0.0 | 6.4 | 0.00 | 0.46 | 0.46 | 79 | 1013.2 |
| 20260903180722 | 26 | 215 | 6.4 | 9.7 | 0.00 | 0.46 | 0.46 | 79 | 1013.0 |
| 20260903180221 | 27 | 21 | 0.0 | 4.8 | 0.00 | 0.46 | 0.46 | 79 | 1013.1 |
| 20260903175721 | 27 | 216 | 1.6 | 4.8 | 0.00 | 0.46 | 0.46 | 79 | 1013.3 |
| 20260903175214 | 26 | 341 | 1.6 | 8.0 | 0.00 | 0.46 | 0.46 | 79 | 1013.4 |
| 20260903174714 | 26 | 264 | 4.8 | 9.7 | 0.00 | 0.46 | 0.46 | 80 | 1013.3 |
| 20260903174209 | 27 | 298 | 0.0 | 3.2 | 0.00 | 0.46 | 0.46 | 78 | 1013.0 |
| 20260903173709 | 26 | 277 | 4.8 | 6.4 | 0.00 | 0.46 | 0.46 | 78 | 1013.3 |
| 20260903173206 | 26 | 99 | 0.0 | 3.2 | 0.00 | 0.46 | 0.46 | 80 | 1013.3 |
| 20260903172701 | 26 | 351 | 3.2 | 9.7 | 0.00 | 0.46 | 0.46 | 80 | 1013.5 |
| 20260903172156 | 26 | 359 | 1.6 | 4.8 | 0.00 | 0.46 | 0.46 | 80 | 1013.3 |
| 20260903171655 | 26 | 336 | 3.2 | 6.4 | 0.00 | 0.46 | 0.46 | 79 | 1013.6 |
| 20260903171147 | 26 | 347 | 1.6 | 4.8 | 0.00 | 0.46 | 0.46 | 80 | 1013.3 |
| 20260903170645 | 27 | 257 | 9.7 | 12.9 | 0.00 | 0.46 | 0.46 | 76 | 1013.4 |
| 20260903170141 | 27 | 317 | 3.2 | 4.8 | 0.00 | 0.46 | 0.46 | 82 | 1013.3 |
| 20260903165638 | 27 | 168 | 0.0 | 1.6 | 0.00 | 0.46 | 0.46 | 77 | 1013.5 |
| 20260903165133 | 26 | 338 | 3.2 | 11.3 | 0.00 | 0.46 | 0.46 | 79 | 1013.4 |
| 20260903164627 | 26 | 266 | 6.4 | 8.0 | 0.00 | 0.46 | 0.46 | 79 | 1013.6 |
| 20260903164124 | 26 | 320 | 4.8 | 4.8 | 0.00 | 0.46 | 0.46 | 81 | 1013.6 |
| 20260903163619 | 26 | 87 | 3.2 | 9.7 | 0.00 | 0.46 | 0.46 | 82 | 1013.6 |
| 20260903163115 | 27 | 246 | 3.2 | 4.8 | 0.00 | 0.46 | 0.46 | 79 | 1013.7 |
| 20260903162611 | 26 | 83 | 3.2 | 4.8 | 0.00 | 0.46 | 0.46 | 84 | 1013.6 |
| 20260903162107 | 26 | 349 | 6.4 | 6.4 | 0.00 | 0.46 | 0.46 | 83 | 1013.7 |
| 20260903161602 | 25 | 27 | 3.2 | 4.8 | 0.00 | 0.46 | 0.46 | 84 | 1013.7 |
| 20260903161057 | 25 | 245 | 1.6 | 6.4 | 0.00 | 0.46 | 0.46 | 84 | 1014.0 |
| 20260903160556 | 25 | 156 | 0.0 | 3.2 | 0.00 | 0.46 | 0.46 | 84 | 1013.9 |
| 20260903160051 | 25 | 253 | 6.4 | 9.7 | 0.00 | 0.46 | 0.46 | 85 | 1013.8 |
| 20260903155550 | 25 | 343 | 0.0 | 3.2 | 0.00 | 0.46 | 0.46 | 87 | 1013.9 |
| 20260903155046 | 24 | 2 | 0.0 | 6.4 | 0.00 | 0.46 | 0.46 | 86 | 1014.2 |
| 20260903154542 | 23 | 2 | 3.2 | 4.8 | 0.00 | 0.46 | 0.46 | 89 | 1014.3 |
| 20260903154038 | 24 | 48 | 1.6 | 3.2 | 0.00 | 0.46 | 0.46 | 88 | 1014.2 |
| 20260903153533 | 24 | 4 | 3.2 | 4.8 | 0.00 | 0.46 | 0.46 | 90 | 1014.5 |
| 20260903153029 | 24 | 264 | 0.0 | 3.2 | 0.00 | 0.46 | 0.46 | 88 | 1014.4 |
| 20260903152525 | 23 | 289 | 1.6 | 3.2 | 0.00 | 0.46 | 0.46 | 89 | 1014.5 |
| 20260903152021 | 23 | 240 | 1.6 | 4.8 | 0.00 | 0.46 | 0.46 | 89 | 1014.5 |
| 20260903151519 | 23 | 228 | 4.8 | 8.0 | 0.00 | 0.46 | 0.46 | 88 | 1014.5 |
| 20260903151014 | 23 | 25 | 0.0 | 4.8 | 0.00 | 0.46 | 0.46 | 91 | 1014.3 |
| 20260903150509 | 22 | 285 | 3.2 | 8.0 | 0.00 | 0.46 | 0.46 | 91 | 1014.5 |
| 20260903150004 | 22 | 201 | 1.6 | 3.2 | 0.00 | 0.46 | 0.46 | 91 | 1014.6 |
| 20260903145459 | 22 | 6 | 0.0 | 4.8 | 0.00 | 0.46 | 0.46 | 92 | 1014.5 |
| 20260903144954 | 22 | 140 | 1.6 | 3.2 | 0.00 | 0.46 | 0.46 | 93 | 1014.3 |
| 20260903144453 | 22 | 210 | 3.2 | 6.4 | 0.00 | 0.46 | 0.46 | 92 | 1014.4 |
| 20260903143949 | 22 | 220 | 6.4 | 6.4 | 0.00 | 0.46 | 0.46 | 92 | 1014.5 |
| 20260903143446 | 22 | 185 | 1.6 | 4.8 | 0.00 | 0.46 | 0.46 | 93 | 1014.4 |
| 20260903142941 | 22 | 290 | 0.0 | 4.8 | 0.00 | 0.46 | 0.46 | 93 | 1014.5 |
| 20260903142436 | 22 | 219 | 0.0 | 3.2 | 0.00 | 0.46 | 0.46 | 93 | 1014.4 |
| 20260903141932 | 22 | 185 | 1.6 | 4.8 | 0.00 | 0.46 | 0.46 | 94 | 1014.3 |
| 20260903141428 | 21 | 110 | 1.6 | 4.8 | 0.00 | 0.46 | 0.46 | 94 | 1014.5 |
| 20260903140924 | 21 | 269 | 6.4 | 9.7 | 0.00 | 0.46 | 0.46 | 94 | 1014.5 |
| 20260903140419 | 21 | 235 | 3.2 | 3.2 | 0.00 | 0.46 | 0.46 | 94 | 1014.2 |
| 20260903135914 | 21 | 171 | 0.0 | 3.2 | 0.00 | 0.46 | 0.46 | 95 | 1014.4 |
| 20260903135410 | 21 | 301 | 0.0 | 4.8 | 0.00 | 0.46 | 0.46 | 95 | 1014.5 |
| 20260903134908 | 21 | 144 | 3.2 | 3.2 | 0.00 | 0.46 | 0.46 | 96 | 1014.4 |
| 20260903134403 | 21 | 156 | 0.0 | 3.2 | 0.00 | 0.46 | 0.46 | 95 | 1014.4 |
| 20260903133901 | 22 | 263 | 1.6 | 4.8 | 0.00 | 0.46 | 0.46 | 94 | 1014.2 |
| 20260903133357 | 22 | 251 | 3.2 | 9.7 | 0.00 | 0.46 | 0.46 | 94 | 1014.2 |
| 20260903132857 | 22 | 223 | 8.0 | 8.0 | 0.00 | 0.46 | 0.46 | 95 | 1014.2 |
| 20260903132353 | 22 | 215 | 0.0 | 0.0 | 0.00 | 0.46 | 0.46 | 96 | 1014.2 |
| 20260903131852 | 21 | 238 | 3.2 | 6.4 | 0.00 | 0.46 | 0.46 | 95 | 1014.0 |
| 20260903131347 | 21 | 194 | 1.6 | 3.2 | 0.00 | 0.46 | 0.46 | 99 | 1014.2 |
| 20260903130846 | 21 | 138 | 0.0 | 3.2 | 0.00 | 0.46 | 0.46 | 99 | 1014.4 |
| 20260903130341 | 21 | 172 | 1.6 | 3.2 | 0.00 | 0.46 | 0.46 | 99 | 1014.3 |
| 20260903125839 | 20 | 157 | 3.2 | 3.2 | 0.00 | 0.46 | 0.46 | 99 | 1014.4 |
| 20260903125335 | 20 | 220 | 0.0 | 3.2 | 0.00 | 0.46 | 0.46 | 99 | 1014.4 |
| 20260903124834 | 20 | 156 | 0.0 | 3.2 | 0.00 | 0.46 | 0.46 | 99 | 1014.5 |
| 20260903124330 | 20 | 165 | 1.6 | 3.2 | 0.00 | 0.46 | 0.46 | 99 | 1014.2 |
| 20260903123828 | 19 | 181 | 1.6 | 1.6 | 0.00 | 0.46 | 0.46 | 99 | 1014.6 |
| 20260903123323 | 20 | 230 | 0.0 | 3.2 | 0.00 | 0.46 | 0.46 | 99 | 1014.9 |
| 20260903122821 | 20 | 230 | 0.0 | 1.6 | 0.00 | 0.46 | 0.46 | 99 | 1014.5 |